User: anonymous   Login
Location: Brivio
(45.7333°N, 9.4500°E)
Time: 06:12:02
(UTC+00:00)
Language:

N. Korean satellite - Orbit

View from above orbital plane
View from above orbital plane
View from above satellite
View from above satellite

Ground track
Ground track

The orbit data is extracted from the following two-line orbital elements,

1 39026U 12072A   20020.56883374 +.00000717 +00000-0 +28099-4 0  9997
2 39026 097.2174 021.8601 0039050 055.2308 305.2598 15.28289697394500
Epoch (UTC): 20 January 2020 13:39:07
Eccentricity: 0.0039050
inclination: 97.2174°
perigee height: 454 km
apogee height: 508 km
right ascension of ascending node: 21.8601°
argument of perigee: 55.2308°
revolutions per day: 15.28289697
mean anomaly at epoch: 305.2598°
orbit number at epoch: 39450

The dashed part of the orbit path shows where the satellite is in the earth's shadow,  

DLR